Location: Vancouver
(49.2500°N, 123.1330°W)
Time: 03:50:29
(UTC-07:00)

Cosmos 2333 Rocket - Visible Passes

Search period start: 30 March 2017 00:00
Search period end: 09 April 2017 00:00
Orbit: 838 x 864 km, 70.8° (Epoch: 28 March)

Date Brightness Start Highest point End Pass type
(mag) Time Alt. Az. Time Alt. Az. Time Alt. Az.
30 Mar 3.3 04:32:16 17° S 04:36:14 41° ESE 04:41:35 10° NE visible
30 Mar 2.8 06:15:07 10° WSW 06:20:31 41° NW 06:25:59 10° NNE visible
31 Mar 3.3 04:20:39 21° SSE 04:23:55 41° ESE 04:29:16 10° NE visible
31 Mar 2.8 06:02:48 10° WSW 06:08:13 41° NW 06:13:40 10° NNE visible
01 Apr 3.2 04:08:57 25° SSE 04:11:36 40° ESE 04:16:57 10° NE visible
01 Apr 2.8 05:50:57 12° WSW 05:55:53 41° NW 06:01:22 10° NNE visible
02 Apr 3.2 03:57:11 29° SSE 03:59:18 40° ESE 04:04:39 10° NE visible
02 Apr 2.8 05:39:11 15° WSW 05:43:35 41° NW 05:49:03 10° NNE visible
03 Apr 3.2 03:45:21 33° SE 03:46:59 40° ESE 03:52:20 10° NE visible
03 Apr 2.8 05:27:22 18° WSW 05:31:16 41° NW 05:36:45 10° NNE visible
04 Apr 3.1 03:33:29 36° SE 03:34:40 40° ESE 03:40:01 10° NE visible
04 Apr 2.8 05:15:30 21° WSW 05:18:57 42° NW 05:24:25 10° NNE visible
05 Apr 3.0 03:21:34 38° SE 03:22:21 40° ESE 03:27:43 10° NE visible
05 Apr 2.9 05:03:35 23° WSW 05:06:38 42° NW 05:12:07 10° NNE visible
06 Apr 3.0 03:09:37 40° ESE 03:10:03 40° ESE 03:15:24 10° NE visible
06 Apr 2.9 04:51:37 26° WSW 04:54:20 42° NW 04:59:48 10° NNE visible
07 Apr 3.0 02:57:38 40° ESE 02:57:44 40° ESE 03:03:05 10° NE visible
07 Apr 2.9 04:39:37 28° W 04:42:01 42° NW 04:47:29 10° NNE visible
08 Apr 3.1 02:45:36 40° ESE 02:45:36 40° ESE 02:50:46 10° NE visible
08 Apr 2.9 04:27:36 31° W 04:29:42 42° NW 04:35:10 10° NNE visible
